Regional Weather Roundup
Issued by NWS New Orleans/Baton Rouge, LA

Home | Current Version | Previous Version | Graphics & Text | Print | Product List | Glossary On
Versions: 1 2 3 4 5 6 7 8 9 10 11 12 13 14 15 16 17 18 19 20 21 22 23 24 25 26 27 28 29 30 31 32 33 34 35 36 37 38 39 40 41 42 43 44 45 46 47 48 49 50
725
ASUS44 KLIX 180207
RWRLIX
NEW ORLEANS REGIONAL WEATHER ROUNDUP
NATIONAL WEATHER SERVICE NEW ORLEANS LA
900 PM CDT FRI APR 17 2015

NOTE: "FAIR" INDICATES FEW OR NO CLOUDS BELOW 12,000 FEET WITH NO
      SIGNIFICANT WEATHER AND/OR OBSTRUCTIONS TO VISIBILITY.
      SKY/WX - SKY CONDITION AND SIGNIFICANT WEATHER.
      TMP - AIR TEMPERATURE.     DP    - DEWPOINT TEMPERATURE.
      RH  - RELATIVE HUMIDITY.   PRES  - PRESSURE.
      HI  - HEAT INDEX.          WCI   - WIND CHILL INDEX.

*  THESE STATIONS ARE NOT NWS OR FAA STATIONS AND ARE NOT UNDER
   NWS QUALITY CONTROL.

LAZ038-040-048-061>063-065>067-069-180300-
SOUTHEAST LOUISIANA

CITY           SKY/WX    TMP DP  RH WIND       PRES   REMARKS
N.O. AUDUBON     N/A     75  75  99 MISG        N/A
N.O. INTL ARPT CLOUDY    76  69  79 S6        29.93R
N.O. LAKEFRONT CLOUDY    79  70  74 S5        29.94R
SLIDELL        CLOUDY    73  72  96 CALM      29.93R
BATON ROUGE    CLOUDY    73  69  87 CALM      29.93R
BOOTHVILLE     CLOUDY    75  71  87 SW5       29.95R
BELLE CHASSE   CLOUDY    73  69  87 S3        29.93R
BOGALUSA*        N/A     73  69  86 CALM      29.95R
GALLIANO*      CLOUDY    76  72  87 CALM      29.95R
NEW ROADS*       N/A     74  72  93 CALM      29.93R
GONZALES*        N/A     73  73 100 CALM      29.92S
HAMMOND*       CLOUDY    73  68  83 CALM      29.95R
HOUMA*         CLOUDY    73  71  95 CALM      29.92F
PORT FOURCHON* MOCLDY    77  72  83 SE6       29.97F

$$

MSZ070-080>082-180300-
SOUTHERN MISSISSIPPI

CITY           SKY/WX    TMP DP  RH WIND       PRES   REMARKS
MCCOMB         CLOUDY    71  66  84 N3        29.95R
GULFPORT       MOCLDY    75  70  84 CALM      29.93R
BILOXI         MOCLDY    75  75  99 SW9       29.93R
PASCAGOULA     MOCLDY    73  71  93 SW5       29.94R

$$

COASTAL OBSERVATIONS
LAKE AND NEARSHORE STATIONS

STATION/POSITION TIME  TEMP    WIND        PRES    WAVE
                       AIR SEA DIR/SP/G            HT/PER
                 (UTC) (F)     (DEG/KT/KT) (MB)    (FT/S)
PASCAGOULA       0100   75     210/  7/  9 1012.9
WAVELAND YACHT   0100   75 74  230/  6/  7 1013.3
GRAND ISLE       0100   76 76  180/  2/  4 1013.7
SOUTHWEST PASS   0100   74 63   CALM  /  1 1014.3
NEW CANAL        0100   78     220/  3/  4 1013.6
SHELL BEACH      0100   77 76  200/  6/  7 1012.9

OFFSHORE STATIONS

STATION/POSITION TIME  TEMP    WIND        PRES    WAVE
                       AIR SEA DIR/SP/G            HT/PER
                 (UTC) (F)     (DEG/KT/KT) (MB)    (FT/S)
64 S DAUPHIN ISL 0150   74 74  280/  6/  8 1014.3    3/ 6

$$




USA.gov is the U.S. government's official web portal to all federal, state and local government web resources and services.